[[{"header":{"parameterUnit":"m.s-1","parameterCategory":1,"la1":30.2991,"la2":30.254,"lo1":-89.0895,"lo2":-89.0444,"dy":0.0017,"dx":0.0017,"nx":28,"ny":28,"refTime":"2026-01-11T03:00:00:Z","depth":0,"parameterNumber":2,"parameterNumberName":"U-component_of_WINDS"},"data":[0,0,0,0,0,0,0,0,0,0,0,0,0,0,0,0,0,0,0,0,0,0,0,0,0,0,0,0,0,0,0,0,0,0,0,0,0,0,0,0,0,0,0,0,0,0,0,0,0,0,0,0,0,0,0,0,0,0,2.1654,2.1654,0,2.1658,2.1658,2.1658,2.1631,2.163,2.1629,2.1628,2.1631,2.1632,2.1632,0,0,0,0,0,0,0,0,0,0,0,0,0,2.1624,2.1624,2.1654,2.1654,2.1654,2.1658,2.1658,2.1658,2.1631,2.163,2.1629,2.1628,2.1631,2.1632,2.1632,0,0,0,0,0,0,0,0,0,0,0,0,0,2.1633,2.1625,2.1654,2.1641,2.164,2.1658,2.1658,2.1658,2.1631,2.163,2.1629,2.1628,2.163,2.1631,2.1633,2.1663,0,0,2.1636,2.1637,0,0,0,0,0,0,0,0,2.1633,2.1634,2.1643,2.1642,2.1641,2.1643,2.1648,2.1659,2.1631,2.1634,2.1628,2.1627,2.1636,2.1636,2.1639,2.1663,2.1663,2.1636,2.1637,2.1637,2.1638,0,0,0,0,0,0,0,2.1632,2.1634,2.1655,2.1643,2.1642,2.1635,2.1635,2.165,2.1641,2.1634,2.1632,2.1633,2.1635,2.1638,2.1639,2.1663,2.1636,2.1637,2.1638,2.1638,2.1713,2.1715,0,0,0,0,0,0,2.1633,2.1633,2.1655,2.1655,2.1634,2.1637,2.1637,2.1643,2.1641,2.164,2.1634,2.1632,2.1637,2.1638,2.1639,2.1675,2.1637,2.1639,2.1639,2.1712,2.1714,2.1715,0,0,0,0,0,0,2.1632,2.1635,2.1655,2.1644,2.1646,2.1638,2.1646,2.1644,2.1647,2.1641,2.1639,2.1639,2.1636,2.1638,2.1658,2.1675,2.1639,2.164,2.1711,2.1713,2.1714,2.1747,0,0,0,0,0,0,2.1632,2.1635,2.1646,2.1644,2.1647,2.1673,2.1647,2.1645,2.165,2.1647,2.1645,2.1644,2.1635,2.1656,2.1659,2.1676,2.1641,2.1709,2.1711,2.1714,2.1745,2.175,2.1755,0,0,0,0,0,2.1631,2.1654,2.1647,2.165,2.166,2.1674,2.1675,2.1665,2.1651,2.1662,2.1659,2.1644,2.1673,2.1658,2.1661,2.1679,2.1708,2.1711,2.1714,2.1742,2.1749,2.1755,0,0,0,0,0,0,2.1657,2.1654,2.1645,2.1669,2.1672,2.167,2.1683,2.1672,2.1679,2.1676,2.1663,2.1663,2.1685,2.1684,2.1668,2.1709,2.1688,2.1692,2.1709,2.1715,2.172,2.172,2.1642,0,0,0,0,0,2.1666,2.1678,2.1674,2.1696,2.1698,2.1691,2.1696,2.1688,2.1691,2.1692,2.1689,2.1692,2.1702,2.1709,2.1717,2.1745,2.1745,2.1759,2.1764,2.1768,2.1771,2.1788,2.1794,2.1725,2.1725,2.1725,0,0,2.1684,2.1683,2.1691,2.1701,2.1702,2.1715,2.1692,2.1705,2.1715,2.1694,2.1713,2.1712,2.1714,2.1739,2.1749,2.1738,2.1791,2.1772,2.1776,2.1776,2.1791,2.1798,2.1804,2.1727,2.1726,2.1726,0,0,2.1723,2.1724,2.1742,2.1745,2.1748,2.1744,2.1749,2.1748,2.1747,2.1766,2.1751,2.1762,2.1779,2.1782,2.1786,2.183,2.1817,2.1833,2.1859,2.1875,2.1881,2.1886,2.1902,2.1908,2.1836,2.1836,2.1836,0,2.1744,2.1763,2.1753,2.1769,2.1774,2.1757,2.1777,2.178,2.1785,2.1789,2.1778,2.18,2.18,2.1826,2.1837,2.1841,2.1846,2.1832,2.1881,2.1886,2.189,2.1906,2.1912,2.1838,2.1838,2.1838,2.1838,0,2.179,2.1803,2.1818,2.1826,2.1833,2.185,2.1844,2.1852,2.1845,2.1842,2.1863,2.1863,2.1872,2.1878,2.187,2.1903,2.1897,2.1883,2.1861,2.1899,2.1913,2.1919,2.1841,2.184,2.184,2.1839,0,0,2.1843,2.1847,2.1853,2.1857,2.1861,2.1871,2.1889,2.1899,2.1907,2.1912,2.1927,2.1943,2.1932,2.1936,2.1929,2.1943,2.1979,2.1928,2.1928,2.1938,2.2018,2.2028,2.2035,2.1971,2.1973,2.1973,2.2018,0,2.1882,2.1912,2.1905,2.1935,2.1949,2.1934,2.195,2.1954,2.1953,2.1964,2.1962,2.1974,2.1957,2.196,2.1974,2.1972,2.1995,2.1969,2.1985,2.1986,2.1985,2.2042,2.2052,2.2094,2.2023,2.2024,2.2025,0,2.193,2.1939,2.1971,2.1975,2.198,2.1994,2.2004,2.2015,2.2021,2.2019,2.2025,2.2016,2.2034,2.2013,2.2039,2.2021,2.2028,2.2029,2.203,2.2031,2.2007,2.2044,2.2106,2.2113,2.2033,2.2033,2.2032,0,2.1967,2.1987,2.2009,2.2013,2.2018,2.2028,2.2031,2.2035,2.2043,2.2052,2.2057,2.2067,2.2073,2.2082,2.2076,2.2061,2.2103,2.2081,2.2103,2.2103,2.2111,2.2111,2.2175,2.2116,2.2116,2.2116,2.2116,0,2.2011,2.2031,2.2026,2.2039,2.2062,2.2055,2.2078,2.2079,2.2083,2.2097,2.2085,2.2099,2.209,2.2103,2.2099,2.2122,2.2124,2.2124,2.2122,2.2125,2.2125,2.2128,2.2125,2.2117,2.2117,2.2117,2.2116,0,2.2055,2.2052,2.2076,2.2079,2.2081,2.2098,2.2101,2.2114,2.2113,2.2131,2.2135,2.2132,2.2147,2.2143,2.2159,2.2156,2.2185,2.218,2.2183,2.2182,2.2204,2.2202,2.2272,2.2282,2.2217,2.2217,2.2218,0,2.2083,2.2098,2.2105,2.2114,2.2117,2.2132,2.214,2.2134,2.2143,2.2152,2.2164,2.2179,2.2189,2.2214,2.2214,2.2227,2.2222,2.2246,2.2223,2.2226,2.2223,2.2222,2.2224,2.225,2.2251,2.2251,2.2252,0,2.2133,2.2132,2.2144,2.2157,2.2167,2.2177,2.2185,2.2193,2.2188,2.2199,2.2215,2.2224,2.2241,2.2256,2.2268,2.2271,2.2261,2.2259,2.2265,2.2267,2.2269,2.2269,2.2196,2.2257,2.2257,2.2256,2.2256,2.2256,2.217,2.2184,2.2191,2.2206,2.2212,2.2221,2.2234,2.2236,2.2249,2.2263,2.2259,2.2277,2.2285,2.23,2.2305,2.2319,2.231,2.2318,2.232,2.2322,2.2325,2.2267,2.2322,2.2321,2.2321,2.2321,2.2321,0,2.222,2.2225,2.2239,2.2252,2.2264,2.2255,2.2265,2.2275,2.2292,2.23,2.2312,2.2331,2.2346,2.2348,2.2362,2.2374,2.237,2.2378,2.2377,2.2378,2.2332,2.2326,2.2381,2.2381,2.2381,2.2381,2.2381,2.2381,2.2247,2.2271,2.2271,2.2298,2.2303,2.2321,2.2328,2.2336,2.2343,2.2365,2.2378,2.238,2.2386,2.2401,2.2415,2.2415,2.2421,2.2431,2.2429,2.2387,2.2381,2.2375,2.2369,2.2432,2.2432,2.2473,2.2474,2.2474]},{"header":{"parameterUnit":"m.s-1","parameterCategory":1,"la1":30.2991,"la2":30.254,"lo1":-89.0895,"lo2":-89.0444,"dy":0.0017,"dx":0.0017,"nx":28,"ny":28,"refTime":"2026-01-11T03:00:00:Z","depth":0,"parameterNumber":3,"parameterNumberName":"V-component_of_WINDS"},"data":[0,0,0,0,0,0,0,0,0,0,0,0,0,0,0,0,0,0,0,0,0,0,0,0,0,0,0,0,0,0,0,0,0,0,0,0,0,0,0,0,0,0,0,0,0,0,0,0,0,0,0,0,0,0,0,0,0,0,-7.0491,-7.0492,0,-7.0664,-7.0666,-7.0668,-7.0652,-7.0649,-7.0646,-7.0644,-7.0815,-7.0822,-7.0829,0,0,0,0,0,0,0,0,0,0,0,0,0,-7.0142,-7.0149,-7.049,-7.0493,-7.0495,-7.0664,-7.0666,-7.0669,-7.0652,-7.0649,-7.0646,-7.0643,-7.0813,-7.0821,-7.083,0,0,0,0,0,0,0,0,0,0,0,0,0,-7.0302,-7.0151,-7.049,-7.0507,-7.051,-7.0663,-7.0666,-7.0669,-7.0653,-7.0649,-7.0645,-7.0641,-7.081,-7.0821,-7.0831,-7.0976,0,0,-7.0863,-7.0868,0,0,0,0,0,0,0,0,-7.0293,-7.0315,-7.0502,-7.0506,-7.051,-7.0632,-7.0606,-7.0772,-7.0654,-7.0598,-7.0644,-7.0639,-7.0757,-7.0772,-7.0813,-7.0984,-7.0992,-7.0864,-7.0871,-7.0875,-7.0878,0,0,0,0,0,0,0,-7.0282,-7.0307,-7.0559,-7.0505,-7.051,-7.0505,-7.0524,-7.0638,-7.0698,-7.0603,-7.0602,-7.0623,-7.0759,-7.0803,-7.0817,-7.0994,-7.0864,-7.0873,-7.088,-7.0884,-7.1298,-7.1303,0,0,0,0,0,0,-7.0268,-7.0298,-7.0553,-7.0564,-7.039,-7.0515,-7.0535,-7.0597,-7.0697,-7.0708,-7.0627,-7.0622,-7.0787,-7.0805,-7.0823,-7.1003,-7.0875,-7.0885,-7.0891,-7.1294,-7.1299,-7.1304,0,0,0,0,0,0,-7.026,-7.0291,-7.0546,-7.0431,-7.0464,-7.0525,-7.0594,-7.0603,-7.0647,-7.0715,-7.0725,-7.0661,-7.0784,-7.0808,-7.094,-7.1008,-7.089,-7.0899,-7.1288,-7.1295,-7.1302,-7.1362,0,0,0,0,0,0,-7.025,-7.0288,-7.0344,-7.0433,-7.047,-7.0661,-7.0599,-7.0609,-7.0666,-7.0662,-7.075,-7.076,-7.0783,-7.0924,-7.095,-7.1021,-7.0908,-7.1282,-7.1291,-7.13,-7.1354,-7.137,-7.1383,0,0,0,0,0,-7.0238,-7.0351,-7.0347,-7.0378,-7.0541,-7.0665,-7.0686,-7.0712,-7.0671,-7.0729,-7.0773,-7.0758,-7.0997,-7.0938,-7.0967,-7.1042,-7.1278,-7.1289,-7.1299,-7.1347,-7.1367,-7.1383,0,0,0,0,0,0,-7.0265,-7.0363,-7.0359,-7.0505,-7.0578,-7.0662,-7.0734,-7.0731,-7.0814,-7.0806,-7.0833,-7.0853,-7.0986,-7.1027,-7.096,-7.119,-7.1132,-7.1149,-7.1159,-7.1178,-7.1192,-7.118,-7.0917,0,0,0,0,0,-7.0289,-7.0383,-7.0463,-7.0584,-7.0621,-7.0672,-7.0726,-7.0741,-7.0815,-7.0845,-7.0899,-7.0971,-7.1063,-7.1122,-7.121,-7.136,-7.138,-7.1426,-7.1441,-7.1453,-7.1467,-7.1553,-7.1575,-7.1339,-7.1339,-7.1338,0,0,-7.0338,-7.0403,-7.046,-7.0591,-7.0649,-7.0745,-7.0697,-7.08,-7.0872,-7.086,-7.0989,-7.1032,-7.1114,-7.1257,-7.1322,-7.1294,-7.1537,-7.1466,-7.1475,-7.1483,-7.1566,-7.1588,-7.1608,-7.1346,-7.1345,-7.1343,0,0,-7.0476,-7.0534,-7.0643,-7.0704,-7.0793,-7.0827,-7.0854,-7.0941,-7.097,-7.11,-7.1095,-7.118,-7.1337,-7.1397,-7.1448,-7.1616,-7.1606,-7.1644,-7.1721,-7.1804,-7.1823,-7.1839,-7.1901,-7.1923,-7.1657,-7.1658,-7.1658,0,-7.0524,-7.0671,-7.0699,-7.0805,-7.0864,-7.0862,-7.0974,-7.103,-7.1142,-7.1183,-7.1151,-7.1352,-7.1407,-7.1565,-7.1607,-7.1648,-7.1679,-7.1633,-7.1818,-7.1835,-7.1851,-7.191,-7.1933,-7.1662,-7.1661,-7.1661,-7.166,0,-7.0727,-7.0829,-7.0907,-7.102,-7.1088,-7.1195,-7.124,-7.1305,-7.1315,-7.1353,-7.1487,-7.1554,-7.1658,-7.1696,-7.1704,-7.1858,-7.1838,-7.1812,-7.1754,-7.1877,-7.1934,-7.1956,-7.1668,-7.1666,-7.1665,-7.1664,0,0,-7.0884,-7.1016,-7.1044,-7.1098,-7.1199,-7.1278,-7.1387,-7.1491,-7.1548,-7.1626,-7.1719,-7.1854,-7.1833,-7.1891,-7.1907,-7.198,-7.2112,-7.1945,-7.1948,-7.1976,-7.2288,-7.2307,-7.2333,-7.2107,-7.2111,-7.2114,-7.2281,0,-7.1034,-7.1229,-7.126,-7.1431,-7.1528,-7.153,-7.1625,-7.1697,-7.1737,-7.1823,-7.1865,-7.1962,-7.1925,-7.1961,-7.2034,-7.208,-7.2175,-7.2069,-7.2193,-7.2197,-7.2173,-7.2362,-7.2382,-7.2536,-7.2303,-7.2307,-7.231,0,-7.1233,-7.1323,-7.1505,-7.1598,-7.1639,-7.1724,-7.1825,-7.1908,-7.1991,-7.2014,-7.2083,-7.2091,-7.2204,-7.2143,-7.2301,-7.2228,-7.2281,-7.2312,-7.2319,-7.2331,-7.2261,-7.2381,-7.2586,-7.2609,-7.2344,-7.2341,-7.2339,0,-7.1333,-7.1497,-7.1629,-7.1674,-7.1785,-7.1846,-7.1894,-7.1974,-7.2036,-7.2124,-7.2165,-7.2263,-7.2317,-7.2393,-7.2429,-7.238,-7.2585,-7.2525,-7.2608,-7.2608,-7.2651,-7.2648,-7.2868,-7.2684,-7.2683,-7.2683,-7.2682,0,-7.1497,-7.1608,-7.1676,-7.1756,-7.1883,-7.1918,-7.2042,-7.2088,-7.216,-7.225,-7.2257,-7.2341,-7.2382,-7.2473,-7.2501,-7.2629,-7.2652,-7.2675,-7.2681,-7.2675,-7.2673,-7.271,-7.2701,-7.2689,-7.2688,-7.2686,-7.2685,0,-7.1628,-7.1677,-7.1821,-7.1917,-7.1944,-7.2033,-7.2114,-7.2193,-7.2233,-7.2347,-7.2376,-7.2439,-7.2547,-7.259,-7.272,-7.2739,-7.2888,-7.2884,-7.286,-7.2862,-7.2944,-7.2936,-7.3196,-7.3234,-7.3023,-7.3025,-7.3027,0,-7.1729,-7.1816,-7.1923,-7.1986,-7.2038,-7.2137,-7.2203,-7.2242,-7.2309,-7.2414,-7.2481,-7.2589,-7.2678,-7.2849,-7.2906,-7.3007,-7.3007,-7.3092,-7.3022,-7.3015,-7.3011,-7.3006,-7.3016,-7.3104,-7.3106,-7.3108,-7.3109,0,-7.1906,-7.1927,-7.2022,-7.2128,-7.2207,-7.229,-7.2372,-7.2422,-7.2474,-7.255,-7.2662,-7.2732,-7.2868,-7.2976,-7.3081,-7.313,-7.3129,-7.3132,-7.3156,-7.3151,-7.3134,-7.3147,-7.2897,-7.3125,-7.3123,-7.3122,-7.3121,-7.3121,-7.2026,-7.2105,-7.2195,-7.2301,-7.2368,-7.2446,-7.2526,-7.2579,-7.2674,-7.279,-7.2807,-7.2928,-7.3012,-7.3154,-7.3208,-7.3303,-7.3281,-7.3316,-7.3325,-7.3334,-7.3341,-7.312,-7.3322,-7.3322,-7.3321,-7.3321,-7.3321,0,-7.2204,-7.2263,-7.2362,-7.2479,-7.2563,-7.2559,-7.265,-7.2721,-7.2828,-7.2908,-7.2997,-7.3128,-7.3234,-7.3302,-7.3409,-7.3472,-7.3474,-7.3499,-7.3494,-7.3507,-7.3353,-7.3322,-7.3495,-7.3495,-7.3495,-7.3495,-7.3495,-7.3495,-7.2307,-7.2442,-7.2475,-7.2644,-7.2702,-7.2823,-7.2876,-7.2948,-7.3013,-7.316,-7.3249,-7.3294,-7.337,-7.3483,-7.3581,-7.3598,-7.3638,-7.3664,-7.368,-7.3535,-7.3517,-7.3499,-7.347,-7.3672,-7.3672,-7.3825,-7.3827,-7.3828]}]]